Tracking 29892 objects as of 21-Nov-2024
HD Live streaming from Space Station
objects crossing your sky now

COSMOS 1275 DEB

Track COSMOS 1275 DEB now!
10-day predictions


NORAD ID: 12722
Int'l Code: 1981-053BP
Perigee: 894.3 km
Apogee: 989.7 km
Inclination: 82.9 °
Period: 103.7 minutes
Semi major axis: 7312 km
RCS: 0.0115 m2 (small)
Launch date: June 4, 1981
Source: Commonwealth of Independent States (former USSR) (CIS)
Launch site: PLESETSK MISSILE AND SPACE COMPLEX (PKMTR)

Note: This is SATELLITE DEBRIS
Your satellite tracking list
Your tracking list is empty




NASA's NSSDC Master Catalog

Two Line Element Set (TLE):
1 12722U 81053BP  24324.96070231  .00001480  00000-0  12048-2 0  9994
2 12722  82.9005 150.8485 0065198  53.7424 306.9740 13.88225598179158
Source of the keplerian elements: AFSPC